Flag for Norway Weather past 2 weeks in Nannestad, Norway

Now
84 °F

Sunny.


Feels Like: 83 °F
Forecast: 64 / 84 °F
Wind: 6 mph from North

Location: Oslo Gardermoen Airport

Current Time: Jul 23, 2014 at 2:33:44 PM

Latest Report: Jul 23, 2014 at 1:20 PM


Visibility: 10 mi

Pressure: 30.30 "Hg

Humidity: 35%

Dew point: 54 °F

Location of NannestadLocation

Historic Weather in Nannestad — Graph

°F

Nannestad temperature yesterday

Maximum temperature yesterday: 86 °F (at 5:20 PM)
Minimum temperature yesterday: 59 °F (at 4:50 AM)
Average temperature yesterday: 73 °F

Past Weeks' High & Low Weather Summary

 TemperatureHumidityPressure
High86 °F (Jul 22, 5:20 PM)100% (Jul 16, 12:50 AM)30.33 "Hg (Jul 16, 12:50 AM)
Low50 °F (Jul 18, 3:20 AM)27% (Jul 12, 7:50 PM)29.68 "Hg (Jul 14, 1:20 AM)
Average68 °F65%30.02 "Hg
* Reported Jul 8 12:20 PM — Jul 23 12:50 PM, Nannestad, Weather by CustomWeather, © 2014

Note: Actual official high and low records may vary slightly from our data, if they occured in-between our weather recording intervals... More about our weather records

Advertising

Nannestad weather history for previous 24 hours

 ConditionsComfort  
Time TempWeatherWind HumidityBarometerVisibility
12:50 PM
Jul 23
82 °FSunny.7 mph37%30.30 "Hg10 mi
11:50 AM82 °FPassing clouds.6 mph40%30.30 "HgN/A
11:20 AM81 °FPassing clouds.5 mph45%30.30 "HgN/A
10:50 AM79 °FPassing clouds.5 mph48%30.30 "HgN/A
9:50 AM77 °FPassing clouds.6 mph54%30.33 "HgN/A
7:50 AM68 °FPassing clouds.3 mph69%30.33 "HgN/A
7:20 AM66 °FPassing clouds.3 mph73%30.33 "HgN/A
6:50 AM64 °FSunny.3 mph78%30.33 "Hg10 mi
5:50 AM61 °FSunny.5 mph83%30.33 "Hg10 mi
5:20 AM61 °FClear.5 mph77%30.33 "Hg10 mi
4:50 AM59 °FClear.3 mph82%30.30 "Hg10 mi
4:20 AM61 °FPassing clouds.5 mph77%30.30 "HgN/A
3:50 AM61 °FClear.6 mph77%30.30 "Hg10 mi
3:20 AM63 °FPassing clouds.3 mph73%30.30 "HgN/A
2:50 AM63 °FClear.3 mph73%30.30 "Hg10 mi
2:20 AM63 °FClear.2 mph73%30.30 "Hg10 mi
1:50 AM64 °FPassing clouds.3 mph73%30.30 "HgN/A
6:50 PM
Jul 22
82 °FSunny.9 mph37%30.24 "Hg10 mi
6:20 PM82 °FPassing clouds.7 mph37%30.24 "HgN/A
5:50 PM86 °FSunny.7 mph31%30.24 "Hg10 mi
5:20 PM86 °FSunny.5 mph31%30.21 "Hg10 mi
4:50 PM84 °FPassing clouds.5 mph33%30.24 "HgN/A
4:20 PM84 °FPassing clouds.5 mph35%30.24 "HgN/A
3:50 PM82 °FSunny.2 mph35%30.24 "Hg10 mi
3:20 PM82 °FPassing clouds.5 mph35%30.24 "HgN/A
2:50 PM84 °FPassing clouds.5 mph35%30.27 "HgN/A
2:20 PM82 °FPassing clouds.5 mph40%30.27 "HgN/A
Weather by CustomWeather, © 2014

See weather overviewHow to use our weather pages